Zurück zum Katalog

STARLINK-5783

AktivKommunikationVLEO
NORAD 56022·PAYLOAD·🇺🇸 United States

Gestartet Mar 24, 2023 von Cape Canaveral Space Force Station

Loading…

Nächste Überflüge (nächste 24 Stunden)

TLE

AktuellSource: CelesTrak SupGP

Epoche: Sep 15, 2026, 02:13 UTC

1 56022C 23042AN  26258.09284722 -.00020373  00000+0 -73796-3 0  2582
2 56022  43.0016  55.1991 0001659 254.2737 213.4234 15.27586488    16

Verfolge STARLINK-5783 in Echtzeit mit AllMySat

Download on the App Store